This demonstration page uses our WeatherBlox Daily Observations layout. Learn more.

Left ArrowRight Arrow

31.84235, -102.49876

Hourly Observations for March 22, 2022

Temp ( °F °C ) Dew Point ( °F °C ) Humidity (%) Winds ( mph kmh ) Pressure ( in mb ) Visibility ( mi km ) Precip ( " mm )
12:53 am 00:53 Clear 42 5.6 34 1.1 73 73 NNW 18 30 29.78 1009 10 16 0.00 0.00
1:53 am 01:53 Clear 41 5 33 0.6 73 73 NNW 20 31 29.78 1008 10 16 0.00 0.00
2:53 am 02:53 Clear 41 5 32 0 70 70 N 15 24 29.80 1009 10 16 0.00 0.00
3:53 am 03:53 Clear 41 5 31 -0.6 67 67 N 17 28 29.82 1010 10 16 0.00 0.00
4:53 am 04:53 Mostly Clear 41 5 30 -1.1 65 65 N 18 30 29.83 1010 10 16 0.00 0.00
5:53 am 05:53 Mostly Clear 40 4.4 29 -1.7 65 65 N 20 31 29.85 1011 10 16 0.00 0.00
6:53 am 06:53 Clear 40 4.4 29 -1.7 65 65 N 16 26 29.88 1012 10 16 0.00 0.00
7:53 am 07:53 Cloudy 40 4.4 28 -2.2 63 63 NNW 14 22 29.91 1013 10 16 0.00 0.00
8:53 am 08:53 Cloudy 41 5 28 -2.2 60 60 N 16 26 29.95 1014 10 16 0.00 0.00
9:53 am 09:53 Mostly Cloudy 43 6.1 27 -2.8 53 53 N 21 33 29.97 1015 10 16 0.00 0.00
10:53 am 10:53 Mostly Sunny 47 8.3 26 -3.3 44 44 N 23 37 29.98 1015 10 16 0.00 0.00
11:53 am 11:53 Mostly Cloudy 47 8.3 25 -3.9 42 42 N 21 33 30.01 1016 10 16 0.00 0.00
12:53 pm 12:53 Mostly Cloudy 52 11.1 23 -5 32 32 N 23 37 30.01 1016 9 14 0.00 0.00
1:53 pm 13:53 Partly Cloudy 53 11.7 20 -6.7 27 27 NNW 16 26 30.00 1016 7 11 0.00 0.00
2:53 pm 14:53 Hazy 54 12.2 18 -7.8 24 24 NNW 23 37 29.98 1015 4 6 0.00 0.00
3:53 pm 15:53 Hazy 54 12.2 17 -8.3 23 23 N 23 37 29.97 1015 5 8 0.00 0.00
4:53 pm 16:53 Hazy 56 13.3 17 -8.3 22 22 N 24 39 29.96 1015 6 10 0.00 0.00
5:53 pm 17:53 Sunny 55 12.8 17 -8.3 22 22 N 18 30 29.97 1015 9 14 0.00 0.00
6:53 pm 18:53 Sunny 54 12.2 15 -9.4 21 21 NNW 20 31 29.99 1016 10 16 0.00 0.00
7:53 pm 19:53 Partly Cloudy 52 11.1 13 -10.6 21 21 NNW 15 24 30.02 1017 10 16 0.00 0.00
8:53 pm 20:53 Clear 51 10.6 14 -10 23 23 NNW 8 13 30.04 1017 10 16 0.00 0.00
9:53 pm 21:53 Clear 50 10 14 -10 24 24 NNW 8 13 30.06 1018 10 16 0.00 0.00
10:53 pm 22:53 Clear 48 8.9 14 -10 25 25 NNW 12 19 30.08 1019 10 16 0.00 0.00
11:53 pm 23:53 Clear 45 7.2 14 -10 29 29 NNW 9 15 30.09 1019 10 16 0.00 0.00

Powered by AerisWeather